Location: *
(60.1759°S, 155.0663°W)
Time: 14:43:58
(UTC+00:00)

SWARM A - Pass Details

Date: 17 September 2019
Orbit: 432 x 436 km, 87.4° (Epoch: 20 October)

Event Time Altitude Azimuth Distance (km) Brightness Sun altitude
Exits shadow 14:06:00 21° 4° (N) 1,077 6.0 -17.4°
Maximum altitude 14:08:12 78° 88° (E) 465 4.4 -17.1°
Drops below altitude 10° 14:11:39 10° 174° (S) 1,592 7.5 -16.7°
Sets 14:13:44 0° 175° (S) 2,471 8.5 -16.5°
